Time,TemperatureF,DewpointF,PressureIn,WindDirection,WindDirectionDegrees,WindSpeedMPH,WindSpeedGustMPH,Humidity,HourlyPrecipIn,Conditions,Clouds,dailyrainin,SolarRadiationWatts/m^2,SoftwareType,DateUTC
2013-05-23 00:11:00,48.0,28.0,-100.00,WNW,296,2.0,6.0,45,0.00,,,0.00,14.000000,,2013-05-23 08:11:00,
2013-05-23 00:21:00,48.0,28.0,-100.00,WNW,296,2.0,6.0,45,0.00,,,0.00,14.000000,,2013-05-23 08:21:00,
2013-05-23 00:52:00,42.0,27.0,-100.00,SE,126,2.0,5.0,54,0.00,,,0.00,3.000000,,2013-05-23 08:52:00,
2013-05-23 01:01:00,42.0,27.0,-100.00,SE,126,2.0,5.0,54,0.00,,,0.00,3.000000,,2013-05-23 09:01:00,
2013-05-23 01:11:00,42.0,27.0,-100.00,SE,126,2.0,5.0,54,0.00,,,0.00,3.000000,,2013-05-23 09:11:00,
2013-05-23 01:21:00,42.0,27.0,-100.00,SE,126,2.0,5.0,54,0.00,,,0.00,3.000000,,2013-05-23 09:21:00,
2013-05-23 01:53:00,37.0,27.0,-100.00,SE,133,3.0,4.0,68,0.00,,,0.00,1.000000,,2013-05-23 09:53:00,
2013-05-23 02:02:00,37.0,27.0,-100.00,SE,133,3.0,4.0,68,0.00,,,0.00,1.000000,,2013-05-23 10:02:00,
2013-05-23 02:12:00,37.0,27.0,-100.00,SE,133,3.0,4.0,68,0.00,,,0.00,1.000000,,2013-05-23 10:12:00,
2013-05-23 02:22:00,37.0,27.0,-100.00,SE,133,3.0,4.0,68,0.00,,,0.00,1.000000,,2013-05-23 10:22:00,
2013-05-23 02:52:00,36.0,27.0,-100.00,ESE,118,2.0,4.0,70,0.00,,,0.00,0.000000,,2013-05-23 10:52:00,
2013-05-23 03:02:00,36.0,27.0,-100.00,ESE,118,2.0,4.0,70,0.00,,,0.00,0.000000,,2013-05-23 11:02:00,
2013-05-23 03:11:00,36.0,27.0,-100.00,ESE,118,2.0,4.0,70,0.00,,,0.00,0.000000,,2013-05-23 11:11:00,
2013-05-23 03:21:00,36.0,27.0,-100.00,ESE,118,2.0,4.0,70,0.00,,,0.00,0.000000,,2013-05-23 11:21:00,
2013-05-23 03:52:00,35.0,29.0,-100.00,East,86,3.0,5.0,79,0.00,,,0.00,1.000000,,2013-05-23 11:52:00,
2013-05-23 04:01:00,35.0,29.0,-100.00,East,86,3.0,5.0,79,0.00,,,0.00,1.000000,,2013-05-23 12:01:00,
2013-05-23 04:11:00,35.0,29.0,-100.00,East,86,3.0,5.0,79,0.00,,,0.00,1.000000,,2013-05-23 12:11:00,
2013-05-23 04:21:00,35.0,29.0,-100.00,East,86,3.0,5.0,79,0.00,,,0.00,1.000000,,2013-05-23 12:21:00,
2013-05-23 04:52:00,37.0,29.0,-100.00,East,83,3.0,5.0,74,0.00,,,0.00,13.000000,,2013-05-23 12:52:00,
2013-05-23 05:01:00,37.0,29.0,-100.00,East,83,3.0,5.0,74,0.00,,,0.00,13.000000,,2013-05-23 13:01:00,
2013-05-23 05:11:00,37.0,29.0,-100.00,East,83,3.0,5.0,74,0.00,,,0.00,13.000000,,2013-05-23 13:11:00,
2013-05-23 05:21:00,37.0,29.0,-100.00,East,83,3.0,5.0,74,0.00,,,0.00,13.000000,,2013-05-23 13:21:00,
2013-05-23 05:52:00,40.0,30.0,-100.00,East,101,4.0,6.0,68,0.00,,,0.00,41.000000,,2013-05-23 13:52:00,
2013-05-23 06:01:00,40.0,30.0,-100.00,East,101,4.0,6.0,68,0.00,,,0.00,41.000000,,2013-05-23 14:01:00,
2013-05-23 06:11:00,40.0,30.0,-100.00,East,101,4.0,6.0,68,0.00,,,0.00,41.000000,,2013-05-23 14:11:00,
2013-05-23 06:21:00,40.0,30.0,-100.00,East,101,4.0,6.0,68,0.00,,,0.00,41.000000,,2013-05-23 14:21:00,
2013-05-23 06:52:00,43.0,29.0,-100.00,ESE,104,4.0,6.0,57,0.00,,,0.00,96.000000,,2013-05-23 14:52:00,
2013-05-23 07:01:00,43.0,29.0,-100.00,ESE,104,4.0,6.0,57,0.00,,,0.00,96.000000,,2013-05-23 15:01:00,
2013-05-23 07:11:00,43.0,29.0,-100.00,ESE,104,4.0,6.0,57,0.00,,,0.00,96.000000,,2013-05-23 15:11:00,
2013-05-23 07:21:00,43.0,29.0,-100.00,ESE,104,4.0,6.0,57,0.00,,,0.00,96.000000,,2013-05-23 15:21:00,
2013-05-23 07:53:00,45.0,30.0,-100.00,ESE,113,4.0,6.0,55,0.00,,,0.00,101.000000,,2013-05-23 15:53:00,
2013-05-23 08:03:00,45.0,30.0,-100.00,ESE,113,4.0,6.0,55,0.00,,,0.00,101.000000,,2013-05-23 16:03:00,
2013-05-23 08:12:00,45.0,30.0,-100.00,ESE,113,4.0,6.0,55,0.00,,,0.00,101.000000,,2013-05-23 16:12:00,
2013-05-23 08:22:00,45.0,30.0,-100.00,ESE,113,4.0,6.0,55,0.00,,,0.00,101.000000,,2013-05-23 16:22:00,
2013-05-23 08:52:00,51.0,32.0,-100.00,South,171,3.0,6.0,48,0.00,,,0.00,311.000000,,2013-05-23 16:52:00,
2013-05-23 09:03:00,51.0,32.0,-100.00,South,171,3.0,6.0,48,0.00,,,0.00,311.000000,,2013-05-23 17:03:00,
2013-05-23 09:11:00,51.0,32.0,-100.00,South,171,3.0,6.0,48,0.00,,,0.00,311.000000,,2013-05-23 17:11:00,
2013-05-23 09:22:00,51.0,32.0,-100.00,South,171,3.0,6.0,48,0.00,,,0.00,311.000000,,2013-05-23 17:22:00,
2013-05-23 09:52:00,53.0,32.0,-100.00,East,97,3.0,5.0,45,0.00,,,0.00,308.000000,,2013-05-23 17:52:00,
2013-05-23 10:01:00,53.0,32.0,-100.00,East,97,3.0,5.0,45,0.00,,,0.00,308.000000,,2013-05-23 18:01:00,
2013-05-23 10:11:00,53.0,32.0,-100.00,East,97,3.0,5.0,45,0.00,,,0.00,308.000000,,2013-05-23 18:11:00,
2013-05-23 10:21:00,53.0,32.0,-100.00,East,97,3.0,5.0,45,0.00,,,0.00,308.000000,,2013-05-23 18:21:00,
2013-05-23 10:52:00,54.0,33.0,-100.00,WNW,283,5.0,9.0,44,0.00,,,0.00,411.000000,,2013-05-23 18:52:00,
2013-05-23 11:01:00,54.0,33.0,-100.00,WNW,283,5.0,9.0,44,0.00,,,0.00,411.000000,,2013-05-23 19:01:00,
2013-05-23 11:11:00,54.0,33.0,-100.00,WNW,283,5.0,9.0,44,0.00,,,0.00,411.000000,,2013-05-23 19:11:00,
2013-05-23 11:21:00,54.0,33.0,-100.00,WNW,283,5.0,9.0,44,0.00,,,0.00,411.000000,,2013-05-23 19:21:00,
2013-05-23 11:52:00,57.0,35.0,-100.00,NW,311,6.0,10.0,44,0.00,,,0.00,397.000000,,2013-05-23 19:52:00,
2013-05-23 12:02:00,57.0,35.0,-100.00,NW,311,6.0,10.0,44,0.00,,,0.00,397.000000,,2013-05-23 20:02:00,
2013-05-23 12:11:00,57.0,35.0,-100.00,NW,311,6.0,10.0,44,0.00,,,0.00,397.000000,,2013-05-23 20:11:00,
2013-05-23 12:21:00,57.0,35.0,-100.00,NW,311,6.0,10.0,44,0.00,,,0.00,397.000000,,2013-05-23 20:21:00,
2013-05-23 12:52:00,59.0,35.0,-100.00,NW,311,6.0,10.0,41,0.00,,,0.00,451.000000,,2013-05-23 20:52:00,
2013-05-23 13:01:00,59.0,35.0,-100.00,NW,311,6.0,10.0,41,0.00,,,0.00,451.000000,,2013-05-23 21:01:00,
2013-05-23 13:11:00,59.0,35.0,-100.00,NW,311,6.0,10.0,41,0.00,,,0.00,451.000000,,2013-05-23 21:11:00,
2013-05-23 13:21:00,59.0,35.0,-100.00,NW,311,6.0,10.0,41,0.00,,,0.00,451.000000,,2013-05-23 21:21:00,
2013-05-23 13:53:00,61.0,35.0,-100.00,WSW,257,7.0,14.0,38,0.00,,,0.00,409.000000,,2013-05-23 21:53:00,
2013-05-23 14:02:00,61.0,35.0,-100.00,WSW,257,7.0,14.0,38,0.00,,,0.00,409.000000,,2013-05-23 22:02:00,
2013-05-23 14:12:00,61.0,35.0,-100.00,WSW,257,7.0,14.0,38,0.00,,,0.00,409.000000,,2013-05-23 22:12:00,
2013-05-23 14:22:00,61.0,35.0,-100.00,WSW,257,7.0,14.0,38,0.00,,,0.00,409.000000,,2013-05-23 22:22:00,
2013-05-23 14:52:00,62.0,35.0,-100.00,West,280,7.0,13.0,37,0.00,,,0.00,339.000000,,2013-05-23 22:52:00,
2013-05-23 15:01:00,62.0,35.0,-100.00,West,280,7.0,13.0,37,0.00,,,0.00,339.000000,,2013-05-23 23:01:00,
2013-05-23 15:11:00,62.0,35.0,-100.00,West,280,7.0,13.0,37,0.00,,,0.00,339.000000,,2013-05-23 23:11:00,
2013-05-23 15:21:00,62.0,35.0,-100.00,West,280,7.0,13.0,37,0.00,,,0.00,339.000000,,2013-05-23 23:21:00,
2013-05-23 15:52:00,61.0,35.0,-100.00,WNW,288,9.0,15.0,38,0.00,,,0.00,384.000000,,2013-05-23 23:52:00,
2013-05-23 16:01:00,61.0,35.0,-100.00,WNW,288,9.0,15.0,38,0.00,,,0.00,384.000000,,2013-05-24 00:01:00,
2013-05-23 16:11:00,61.0,35.0,-100.00,WNW,288,9.0,15.0,38,0.00,,,0.00,384.000000,,2013-05-24 00:11:00,
2013-05-23 16:21:00,61.0,35.0,-100.00,WNW,288,9.0,15.0,38,0.00,,,0.00,384.000000,,2013-05-24 00:21:00,
2013-05-23 16:52:00,64.0,37.0,-100.00,West,274,8.0,12.0,37,0.00,,,0.00,345.000000,,2013-05-24 00:52:00,
2013-05-23 17:01:00,64.0,37.0,-100.00,West,274,8.0,12.0,37,0.00,,,0.00,345.000000,,2013-05-24 01:01:00,
2013-05-23 17:12:00,64.0,37.0,-100.00,West,274,8.0,12.0,37,0.00,,,0.00,345.000000,,2013-05-24 01:12:00,
2013-05-23 17:22:00,64.0,37.0,-100.00,West,274,8.0,12.0,37,0.00,,,0.00,345.000000,,2013-05-24 01:22:00,
2013-05-23 17:52:00,62.0,36.0,-100.00,West,281,7.0,17.0,38,0.00,,,0.00,358.000000,,2013-05-24 01:52:00,
2013-05-23 18:01:00,62.0,36.0,-100.00,West,281,7.0,17.0,38,0.00,,,0.00,358.000000,,2013-05-24 02:01:00,
2013-05-23 18:11:00,62.0,36.0,-100.00,West,281,7.0,17.0,38,0.00,,,0.00,358.000000,,2013-05-24 02:11:00,
2013-05-23 18:21:00,62.0,36.0,-100.00,West,281,7.0,17.0,38,0.00,,,0.00,358.000000,,2013-05-24 02:21:00,
2013-05-23 18:52:00,63.0,35.0,-100.00,West,277,9.0,12.0,35,0.00,,,0.00,284.000000,,2013-05-24 02:52:00,
2013-05-23 19:02:00,63.0,35.0,-100.00,West,277,9.0,12.0,35,0.00,,,0.00,284.000000,,2013-05-24 03:02:00,
2013-05-23 19:11:00,63.0,35.0,-100.00,West,277,9.0,12.0,35,0.00,,,0.00,284.000000,,2013-05-24 03:11:00,
2013-05-23 19:21:00,63.0,35.0,-100.00,West,277,9.0,12.0,35,0.00,,,0.00,284.000000,,2013-05-24 03:21:00,
2013-05-23 19:53:00,62.0,36.0,-100.00,WNW,290,9.0,15.0,38,0.00,,,0.00,213.000000,,2013-05-24 03:53:00,
2013-05-23 20:03:00,62.0,36.0,-100.00,WNW,290,9.0,15.0,38,0.00,,,0.00,213.000000,,2013-05-24 04:03:00,
2013-05-23 20:12:00,62.0,36.0,-100.00,WNW,290,9.0,15.0,38,0.00,,,0.00,213.000000,,2013-05-24 04:12:00,
2013-05-23 20:22:00,62.0,36.0,-100.00,WNW,290,9.0,15.0,38,0.00,,,0.00,213.000000,,2013-05-24 04:22:00,
2013-05-23 20:53:00,58.0,39.0,-100.00,WNW,284,7.0,12.0,49,0.00,,,0.00,85.000000,,2013-05-24 04:53:00,
2013-05-23 21:02:00,58.0,39.0,-100.00,WNW,284,7.0,12.0,49,0.00,,,0.00,85.000000,,2013-05-24 05:02:00,
2013-05-23 21:12:00,58.0,39.0,-100.00,WNW,284,7.0,12.0,49,0.00,,,0.00,85.000000,,2013-05-24 05:12:00,
2013-05-23 21:22:00,58.0,39.0,-100.00,WNW,284,7.0,12.0,49,0.00,,,0.00,85.000000,,2013-05-24 05:22:00,
2013-05-23 21:52:00,58.0,40.0,-100.00,WNW,294,7.0,11.0,52,0.00,,,0.00,49.000000,,2013-05-24 05:52:00,
2013-05-23 22:01:00,58.0,40.0,-100.00,WNW,294,7.0,11.0,52,0.00,,,0.00,49.000000,,2013-05-24 06:01:00,
2013-05-23 22:12:00,58.0,40.0,-100.00,WNW,294,7.0,11.0,52,0.00,,,0.00,49.000000,,2013-05-24 06:12:00,
2013-05-23 22:21:00,58.0,40.0,-100.00,WNW,294,7.0,11.0,52,0.00,,,0.00,49.000000,,2013-05-24 06:21:00,
2013-05-23 22:52:00,56.0,40.0,-100.00,West,274,4.0,6.0,54,0.00,,,0.00,26.000000,,2013-05-24 06:52:00,
2013-05-23 23:01:00,56.0,40.0,-100.00,West,274,4.0,6.0,54,0.00,,,0.00,26.000000,,2013-05-24 07:01:00,
2013-05-23 23:11:00,56.0,40.0,-100.00,West,274,4.0,6.0,54,0.00,,,0.00,26.000000,,2013-05-24 07:11:00,
2013-05-23 23:22:00,56.0,40.0,-100.00,West,274,4.0,6.0,54,0.00,,,0.00,26.000000,,2013-05-24 07:22:00,
2013-05-23 23:52:00,53.0,39.0,-100.00,WSW,258,3.0,5.0,60,0.00,,,0.00,10.000000,,2013-05-24 07:52:00,